Location: Unspecified
(35.7250°N, 0.0000°E)
Time: 09:51:22
(UTC+00:00)

Explorer 7 - Pass Details

Date: 22 June 2019
Orbit: 485 x 680 km, 50.3° (Epoch: 19 July)

Event Time Altitude Azimuth Distance (km) Brightness Sun altitude
Rises 10:19:26 0° 284° (WNW) 2,805 10.2 64.7°
Reaches altitude 10° 10:22:24 10° 306° (NW) 1,950 9.5 65.2°
Maximum altitude 10:25:17 17° 346° (NNW) 1,603 9.2 65.8°
Drops below altitude 10° 10:28:16 10° 26° (NNE) 2,028 9.9 66.3°
Sets 10:31:27 0° 47° (NE) 2,974 10.7 66.9°
